Weather History for Newport, AR

Change the Weather History Date:

Thursday, April 4, 2013

  Actual Average (KJBR) Record (KJBR)
Temperature  
Mean Temperature 44 °F 56 °F  
Max Temperature 47 °F 67 °F 87 °F (1893)
Min Temperature 41 °F 46 °F 29 °F (1987)
Degree Days  
Heating Degree Days 21 10  
Month to date heating degree days 40  
Since 1 July heating degree days 3460  
Cooling Degree Days 0 1  
Month to date cooling degree days 4  
Year to date cooling degree days 10  
Moisture  
Dew Point 37 °F    
Average Humidity 77    
Maximum Humidity 100    
Minimum Humidity 65    
Precipitation  
Precipitation 0.07 in 0.14 in 3.10 in (1957)
Month to date precipitation 0.61  
Year to date precipitation 12.26  
Snow  
Snow 0.00 in 0.00 in - ()
Month to date snowfall 0.0  
Since 1 July snowfall 4.8  
Snow Depth -    
Sea Level Pressure  
Sea Level Pressure 30.09 in    
Wind  
Wind Speed 10 mph (North)    
Max Wind Speed 15 mph    
Max Gust Speed -    
Visibility 10 miles    
Events Rain    
T = Trace of Precipitation, MM = Missing Value Source: NWS Daily Summary

Daily Weather History Graph

Daily Weather History Graph

Search for Another Location

Airport:

Trip Planner

Search our weather history database for the weather conditions in past years. The results will help you decide how hot, cold, wet, or windy it might be!

Date:

Astronomy

Apr. 04, 2013 Rise Set
Actual Time 6:46 AM CDT 7:29 PM CDT
Civil Twilight 6:20 AM CDT 7:54 PM CDT
Nautical Twilight 5:50 AM CDT 8:25 PM CDT
Astronomical Twilight 5:19 AM CDT 8:56 PM CDT
Moon 3:02 AM CDT (4/4) 1:58 PM CDT (4/4)
Length of Visible Light 13h 34m
Length of Day
12h 42m
Waning Crescent, 33% of the Moon is Illuminated
Apr 4
Waning Crescent
Apr 10
New
Apr 18
First Quarter
Apr 25
Full
May 2
Last Quarter

Hourly Weather History & Observations

Time (CDT) Temp. Windchill Dew Point Humidity Pressure Visibility Wind Dir Wind Speed Gust Speed Precip Events Conditions
12:56 AM 43.9 °F 37.2 °F 34.9 °F 71% 30.17 in 10.0 mi NNE 13.8 mph - 0.00 in Rain Light Rain
1:56 AM 43.9 °F 39.3 °F 34.9 °F 71% 30.15 in 10.0 mi North 8.1 mph - 0.00 in   Overcast
2:56 AM 43.9 °F 37.2 °F 34.0 °F 68% 30.12 in 10.0 mi NNE 13.8 mph - N/A   Overcast
3:56 AM 43.0 °F 36.4 °F 32.9 °F 68% 30.10 in 10.0 mi NNE 12.7 mph - N/A   Overcast
4:56 AM 43.0 °F 35.7 °F 32.9 °F 68% 30.09 in 10.0 mi NNE 15.0 mph - N/A   Overcast
5:56 AM 41.9 °F 35.0 °F 34.9 °F 76% 30.09 in 10.0 mi NNE 12.7 mph - 0.00 in   Overcast
6:56 AM 41.9 °F - 32.9 °F 70% 30.09 in 10.0 mi North - - 0.00 in   Overcast
7:56 AM 41.9 °F 35.4 °F 32.9 °F 70% 30.10 in 10.0 mi NNE 11.5 mph - 0.00 in Rain Light Rain
8:56 AM 41.9 °F 35.0 °F 34.0 °F 73% 30.11 in 10.0 mi NNE 12.7 mph - 0.00 in Rain Light Rain
9:56 AM 41.9 °F 35.0 °F 34.0 °F 73% 30.11 in 10.0 mi NNE 12.7 mph - 0.00 in Rain Light Rain
10:56 AM 41.9 °F 35.9 °F 34.0 °F 73% 30.12 in 10.0 mi NNE 10.4 mph - 0.00 in Rain Light Rain
11:56 AM 43.0 °F - 34.0 °F 71% 30.12 in 10.0 mi North - - 0.00 in   Overcast
12:56 PM 45.0 °F - 34.0 °F 65% 30.09 in 10.0 mi North - - 0.00 in   Overcast
1:56 PM 45.0 °F - 34.9 °F 68% 30.06 in 10.0 mi North - - 0.00 in Rain Light Rain
2:56 PM 45.9 °F - 37.9 °F 74% 30.05 in 10.0 mi North - - 0.02 in Rain Light Rain
3:56 PM 45.9 °F - 38.8 °F 76% 30.04 in 10.0 mi North - - 0.03 in Rain Light Rain
4:56 PM 46.9 °F - 41.0 °F 80% 30.04 in 10.0 mi North - - 0.02 in Rain Light Rain
5:56 PM 47.8 °F - 41.9 °F 80% 30.05 in 10.0 mi North - - 0.00 in   Overcast
6:56 PM 47.8 °F - 41.9 °F 80% 30.05 in 10.0 mi ENE 4.6 mph - N/A   Overcast
7:56 PM 46.9 °F - 41.9 °F 83% 30.05 in 10.0 mi Calm Calm - N/A   Mostly Cloudy
8:56 PM 45.0 °F - 43.0 °F 93% 30.07 in 10.0 mi Calm Calm - N/A   Mostly Cloudy
9:56 PM 43.0 °F 41.3 °F 41.9 °F 96% 30.09 in 10.0 mi West 3.5 mph - N/A   Partly Cloudy
10:56 PM 41.9 °F 38.2 °F 41.9 °F 100% 30.09 in 8.0 mi WNW 5.8 mph - N/A   Clear
11:56 PM 41.0 °F 39.0 °F 41.0 °F 100% 30.10 in 10.0 mi WNW 3.5 mph - N/A   Clear